This is the latest recevied weather packets stored in our database for station/object SP1BMW-13. If no packets are shown the sender has not sent any weather packets the latest 10 day(s).
| Time | Temp. | Humidity | Pressure | Rain* | Wind** | Luminosity | Snow |
|---|---|---|---|---|---|---|---|
| 1788092857 | 25° C | 52% | 1007.6 hPa | 0 mm | 0.89 m/s, 91° | 26 W/m² | - |
| 1788092806 | 25° C | 52% | 1007.7 hPa | 0 mm | 0.45 m/s, 164° | 28 W/m² | - |
| 1788092737 | 25° C | 52% | 1007.4 hPa | 0 mm | 0.45 m/s, 196° | 28 W/m² | - |
| 1788092677 | 25° C | 52% | 1007.5 hPa | 0 mm | 0.45 m/s, 10° | 28 W/m² | - |
| 1788092617 | 25° C | 52% | 1007.4 hPa | 0 mm | 0 m/s | 29 W/m² | - |
| 1788092557 | 25° C | 52% | 1007.6 hPa | 0 mm | 0.89 m/s, 218° | 31 W/m² | - |
| 1788092498 | 25° C | 53% | 1007.5 hPa | 0 mm | 0.45 m/s, 274° | 35 W/m² | - |
| 1788092437 | 25.56° C | 52% | 1007.5 hPa | 0 mm | 1.34 m/s, 223° | 43 W/m² | - |
| 1788092380 | 25.56° C | 52% | 1007.5 hPa | 0 mm | 0.89 m/s, 330° | 52 W/m² | - |
| 1788092319 | 25.56° C | 52% | 1007.6 hPa | 0 mm | 0.89 m/s, 310° | 66 W/m² | - |
| 1788092257 | 25.56° C | 51% | 1007.5 hPa | 0 mm | 0.45 m/s, 210° | 84 W/m² | - |
| 1788092198 | 25.56° C | 51% | 1007.5 hPa | 0 mm | 1.79 m/s, 266° | 109 W/m² | - |
| 1788092138 | 25.56° C | 52% | 1007.5 hPa | 0 mm | 0.89 m/s, 244° | 139 W/m² | - |
| 1788092077 | 25° C | 53% | 1007.5 hPa | 0 mm | 0.45 m/s, 263° | 166 W/m² | - |
| 1788092017 | 25° C | 51% | 1007.5 hPa | 0 mm | 0.89 m/s, 338° | 214 W/m² | - |
| 1788091957 | 25° C | 51% | 1007.6 hPa | 0 mm | 0.89 m/s, 12° | 692 W/m² | - |
| 1788091897 | 25° C | 51% | 1007.4 hPa | 0 mm | 0.89 m/s, 354° | 205 W/m² | - |
| 1788091837 | 25.56° C | 50% | 1007.5 hPa | 0 mm | 1.79 m/s, 197° | 141 W/m² | - |
| 1788091777 | 25.56° C | 50% | 1007.4 hPa | 0 mm | 0.89 m/s, 163° | 102 W/m² | - |
| 1788091718 | 25.56° C | 50% | 1007.6 hPa | 0 mm | 0.45 m/s, 232° | 85 W/m² | - |
| 1788091657 | 25.56° C | 51% | 1007.5 hPa | 0 mm | 0.45 m/s, 44° | 72 W/m² | - |
| 1788091597 | 25.56° C | 51% | 1007.4 hPa | 0 mm | 1.79 m/s, 249° | 66 W/m² | - |
| 1788091537 | 25.56° C | 50% | 1007.4 hPa | 0 mm | 1.34 m/s, 263° | 64 W/m² | - |
| 1788091480 | 25.56° C | 49% | 1007.5 hPa | 0 mm | 1.34 m/s, 186° | 72 W/m² | - |
| 1788091417 | 25.56° C | 49% | 1007.5 hPa | 0 mm | 2.24 m/s, 91° | 86 W/m² | - |
* Rain latest hour (hover to see other rain measurements)
** Current wind speed in m/s (hover to see current wind gust speed)